TimeCDT,TemperatureF,Dew PointF,Humidity,Sea Level PressureIn,VisibilityMPH,Wind Direction,Wind SpeedMPH,Gust SpeedMPH,PrecipitationIn,Events,Conditions,WindDirDegrees,DateUTC
12:15 AM,63.5,47.8,57,29.81,10.0,NW,17.3,24.2,N/A,,Clear,310,2013-10-01 05:15:00
12:35 AM,60.8,47.5,62,29.83,10.0,NW,17.3,23.0,N/A,,Clear,310,2013-10-01 05:35:00
12:55 AM,59.4,46.6,63,29.83,10.0,NW,11.5,-,N/A,,Clear,310,2013-10-01 05:55:00
1:15 AM,57.9,45.7,64,29.83,10.0,NW,10.4,-,N/A,,Clear,310,2013-10-01 06:15:00
1:35 AM,58.1,43.7,59,29.83,10.0,NW,9.2,-,N/A,,Clear,310,2013-10-01 06:35:00
1:55 AM,57.2,42.8,59,29.84,10.0,NW,8.1,-,N/A,,Clear,310,2013-10-01 06:55:00
2:15 AM,56.8,41.2,56,29.85,10.0,NW,8.1,-,N/A,,Clear,310,2013-10-01 07:15:00
2:35 AM,56.1,41.0,57,29.87,10.0,WNW,5.8,-,N/A,,Clear,290,2013-10-01 07:35:00
2:55 AM,51.8,41.2,67,29.88,10.0,Calm,Calm,-,N/A,,Clear,0,2013-10-01 07:55:00
3:15 AM,53.8,40.6,61,29.88,10.0,West,4.6,-,N/A,,Clear,280,2013-10-01 08:15:00
3:35 AM,54.1,40.3,59,29.88,10.0,WNW,8.1,-,N/A,,Clear,300,2013-10-01 08:35:00
3:55 AM,51.6,40.6,66,29.89,10.0,WNW,6.9,-,N/A,,Clear,290,2013-10-01 08:55:00
4:15 AM,51.1,40.3,67,29.90,10.0,West,4.6,-,N/A,,Clear,280,2013-10-01 09:15:00
4:35 AM,51.1,40.3,67,29.90,10.0,NW,11.5,-,N/A,,Clear,310,2013-10-01 09:35:00
4:55 AM,51.6,40.1,65,29.90,10.0,NW,5.8,-,N/A,,Clear,310,2013-10-01 09:55:00
5:15 AM,50.4,39.9,67,29.92,10.0,NW,4.6,-,N/A,,Clear,310,2013-10-01 10:15:00
5:35 AM,48.0,39.4,72,29.93,10.0,Calm,Calm,-,N/A,,Clear,0,2013-10-01 10:35:00
5:55 AM,49.5,39.6,69,29.94,10.0,West,3.5,-,N/A,,Clear,280,2013-10-01 10:55:00
6:15 AM,46.6,38.7,74,29.95,10.0,Calm,Calm,-,N/A,,Clear,0,2013-10-01 11:15:00
6:35 AM,47.3,39.7,75,29.96,10.0,West,4.6,-,N/A,,Clear,280,2013-10-01 11:35:00
6:55 AM,48.4,39.2,71,29.96,10.0,NW,5.8,-,N/A,,Clear,310,2013-10-01 11:55:00
7:15 AM,46.4,38.7,74,29.97,10.0,West,4.6,-,N/A,,Clear,280,2013-10-01 12:15:00
7:35 AM,46.4,39.2,76,29.98,10.0,WNW,5.8,-,N/A,,Clear,290,2013-10-01 12:35:00
7:55 AM,46.0,38.8,76,29.98,10.0,WNW,6.9,-,N/A,,Clear,290,2013-10-01 12:55:00
8:15 AM,45.7,39.2,78,29.99,10.0,WNW,5.8,-,N/A,,Clear,300,2013-10-01 13:15:00
8:35 AM,48.6,39.9,72,29.99,10.0,WNW,4.6,-,N/A,,Clear,300,2013-10-01 13:35:00
8:55 AM,50.7,41.2,70,30.01,10.0,WNW,5.8,-,N/A,,Clear,290,2013-10-01 13:55:00
9:15 AM,53.4,40.5,61,30.01,10.0,NW,6.9,-,N/A,,Clear,310,2013-10-01 14:15:00
9:35 AM,56.8,39.2,52,30.02,10.0,NNW,6.9,-,N/A,,Clear,330,2013-10-01 14:35:00
9:55 AM,59.9,36.5,42,30.03,10.0,North,10.4,-,N/A,,Clear,350,2013-10-01 14:55:00
10:15 AM,61.9,34.0,35,30.03,10.0,North,10.4,-,N/A,,Clear,350,2013-10-01 15:15:00
10:35 AM,63.1,32.9,32,30.03,10.0,North,10.4,-,N/A,,Clear,360,2013-10-01 15:35:00
10:55 AM,64.2,32.5,31,30.03,10.0,North,9.2,-,N/A,,Clear,10,2013-10-01 15:55:00
11:15 AM,65.3,32.9,30,30.03,10.0,North,5.8,-,N/A,,Clear,360,2013-10-01 16:15:00
11:35 AM,66.2,33.6,30,30.04,10.0,North,5.8,-,N/A,,Clear,350,2013-10-01 16:35:00
11:55 AM,66.4,30.9,27,30.04,10.0,Calm,Calm,-,N/A,,Clear,0,2013-10-01 16:55:00
12:15 PM,67.1,30.7,26,30.04,10.0,NE,5.8,-,N/A,,Clear,40,2013-10-01 17:15:00
12:35 PM,67.6,29.7,24,30.03,10.0,NNE,4.6,-,N/A,,Clear,30,2013-10-01 17:35:00
12:55 PM,68.2,30.4,24,30.03,10.0,Calm,Calm,-,N/A,,Clear,0,2013-10-01 17:55:00
1:15 PM,68.5,30.7,25,30.03,10.0,ESE,4.6,-,N/A,,Clear,120,2013-10-01 18:15:00
1:35 PM,68.7,30.6,24,30.03,10.0,Calm,Calm,-,N/A,,Clear,0,2013-10-01 18:35:00
1:55 PM,69.3,29.7,23,30.02,10.0,SE,4.6,-,N/A,,Clear,130,2013-10-01 18:55:00
2:15 PM,70.3,31.5,24,30.01,10.0,Calm,Calm,-,N/A,,Clear,0,2013-10-01 19:15:00
2:35 PM,70.5,31.3,23,30.01,10.0,Calm,Calm,-,N/A,,Clear,0,2013-10-01 19:35:00
2:55 PM,70.5,32.2,24,30.01,10.0,SSE,5.8,-,N/A,,Clear,160,2013-10-01 19:55:00
3:15 PM,71.4,32.4,24,30.00,10.0,ESE,5.8,-,N/A,,Clear,120,2013-10-01 20:15:00
3:35 PM,71.4,32.2,24,29.99,3.0,SSE,5.8,-,N/A,,Haze,160,2013-10-01 20:35:00
3:55 PM,72.1,32.4,23,29.99,10.0,SE,5.8,-,N/A,,Clear,140,2013-10-01 20:55:00
4:15 PM,72.0,32.4,23,29.99,10.0,South,6.9,-,N/A,,Clear,170,2013-10-01 21:15:00
4:35 PM,72.3,32.5,23,29.98,10.0,SSE,3.5,-,N/A,,Clear,150,2013-10-01 21:35:00
4:55 PM,72.1,33.3,24,29.98,10.0,ESE,9.2,-,N/A,,Clear,120,2013-10-01 21:55:00
5:15 PM,72.3,32.4,23,29.98,10.0,ESE,5.8,-,N/A,,Clear,110,2013-10-01 22:15:00
5:35 PM,72.1,33.6,24,29.97,10.0,ESE,6.9,-,N/A,,Clear,120,2013-10-01 22:35:00
5:55 PM,71.6,33.6,25,29.97,10.0,ESE,9.2,-,N/A,,Clear,120,2013-10-01 22:55:00
6:15 PM,70.9,34.5,26,29.97,10.0,ESE,8.1,-,N/A,,Clear,120,2013-10-01 23:15:00
6:35 PM,69.4,37.0,31,29.97,10.0,ESE,5.8,-,N/A,,Clear,120,2013-10-01 23:35:00
6:55 PM,66.9,38.8,36,29.97,10.0,ESE,4.6,-,N/A,,Clear,120,2013-10-01 23:55:00
7:15 PM,64.2,40.1,41,29.97,10.0,ESE,5.8,-,N/A,,Clear,110,2013-10-02 00:15:00
7:35 PM,60.3,41.0,49,29.97,10.0,ESE,6.9,-,N/A,,Clear,110,2013-10-02 00:35:00
7:55 PM,57.4,41.4,55,29.97,10.0,ESE,6.9,-,N/A,,Clear,120,2013-10-02 00:55:00
8:15 PM,56.8,41.2,56,29.97,10.0,ESE,6.9,-,N/A,,Clear,120,2013-10-02 01:15:00
8:35 PM,55.6,41.0,58,29.97,10.0,SE,6.9,-,N/A,,Clear,130,2013-10-02 01:35:00
8:55 PM,57.0,39.7,52,29.98,10.0,SE,6.9,-,N/A,,Clear,140,2013-10-02 01:55:00
9:15 PM,56.3,39.2,53,29.98,10.0,SE,6.9,-,N/A,,Clear,140,2013-10-02 02:15:00
9:35 PM,55.8,39.6,55,29.98,10.0,SE,5.8,-,N/A,,Clear,140,2013-10-02 02:35:00
9:55 PM,55.6,39.4,55,29.98,7.0,SE,6.9,-,N/A,,Clear,140,2013-10-02 02:55:00
10:15 PM,55.0,39.4,56,29.98,7.0,SE,6.9,-,N/A,,Clear,140,2013-10-02 03:15:00
10:35 PM,54.9,39.2,56,29.98,7.0,SE,8.1,-,N/A,,Clear,140,2013-10-02 03:35:00
10:55 PM,54.1,39.2,57,29.99,10.0,SE,6.9,-,N/A,,Clear,140,2013-10-02 03:55:00
11:15 PM,52.0,39.4,62,29.99,10.0,ESE,3.5,-,N/A,,Clear,120,2013-10-02 04:15:00
11:35 PM,51.8,39.4,63,29.99,10.0,SE,4.6,-,N/A,,Clear,130,2013-10-02 04:35:00
11:55 PM,50.5,39.7,66,29.99,10.0,ESE,3.5,-,N/A,,Clear,120,2013-10-02 04:55:00